CW8386 Weather Reports


time (UTC)temp
F
wind
direction
speed
knots
gust
knots
rain 1hr
in
rain 24hr
in
rain mn
in
humidity
%
barometer
mb
20260906230609 90 360 7.0 16.5 0.00 0.00 0.00 18 1010.7
20260906230049 90 360 8.7 16.5 0.00 0.00 0.00 19 1010.6
20260906225528 90 360 2.6 17.4 0.00 0.00 0.00 18 1010.7
20260906225050 91 360 5.2 17.4 0.00 0.00 0.00 19 1010.7
20260906224531 91 360 2.6 12.2 0.00 0.00 0.00 19 1010.8
20260906224054 91 360 4.3 12.2 0.00 0.00 0.00 20 1010.9
20260906223537 91 360 2.6 11.3 0.00 0.00 0.00 19 1011.0
20260906223039 91 360 0.9 11.3 0.00 0.00 0.00 20 1011.1
20260906222621 90 360 2.6 13.9 0.00 0.00 0.00 20 1011.2
20260906222117 90 360 5.2 16.5 0.00 0.00 0.00 20 1011.1
20260906221541 91 360 4.3 16.5 0.00 0.00 0.00 20 1011.2
20260906221102 91 360 8.7 13.0 0.00 0.00 0.00 20 1011.3
20260906220618 91 360 1.7 9.6 0.00 0.00 0.00 21 1011.2
20260906220058 90 360 0.9 9.6 0.00 0.00 0.00 20 1011.3
20260906215523 90 360 0.0 11.3 0.00 0.00 0.00 21 1011.4
20260906215044 90 360 0.0 11.3 0.00 0.00 0.00 20 1011.4
20260906214526 90 360 0.9 11.3 0.00 0.00 0.00 21 1011.6
20260906214027 90 360 3.5 11.3 0.00 0.00 0.00 20 1011.7
20260906213547 90 360 0.0 9.6 0.00 0.00 0.00 20 1011.7
20260906213108 90 360 0.0 9.6 0.00 0.00 0.00 19 1011.8
20260906212527 90 360 0.0 13.9 0.00 0.00 0.00 21 1011.7
20260906212028 90 360 0.9 14.8 0.00 0.00 0.00 22 1011.8
20260906211549 89 360 8.7 20.9 0.00 0.00 0.00 20 1012.0
20260906211030 90 360 3.5 20.9 0.00 0.00 0.00 21 1012.2
20260906210551 90 360 4.3 13.9 0.00 0.00 0.00 20 1012.2
20260906210031 90 360 2.6 8.7 0.00 0.00 0.00 21 1012.2
20260906205553 90 360 1.7 14.8 0.00 0.00 0.00 21 1012.2
20260906205053 90 360 4.3 16.5 0.00 0.00 0.00 20 1012.3
20260906204533 89 360 0.9 16.5 0.00 0.00 0.00 20 1012.3
20260906204034 90 360 3.5 13.9 0.00 0.00 0.00 21 1012.3
20260906203554 90 360 6.1 12.2 0.00 0.00 0.00 20 1012.4
20260906203055 89 360 4.3 11.3 0.00 0.00 0.00 21 1012.5
20260906202536 89 360 5.2 12.2 0.00 0.00 0.00 21 1012.6
20260906202118 89 360 3.5 19.1 0.00 0.00 0.00 21 1012.8
20260906201618 88 360 9.6 19.1 0.00 0.00 0.00 21 1013.8
20260906201119 88 360 6.1 18.2 0.00 0.00 0.00 21 1013.9
20260906200538 89 360 2.6 14.8 0.00 0.00 0.00 21 1013.9
20260906200119 89 360 6.1 20.0 0.00 0.00 0.00 21 1014.2
20260906195539 89 360 2.6 20.0 0.00 0.00 0.00 21 1014.1
20260906195036 88 360 7.8 19.1 0.00 0.00 0.00 22 1014.2
20260906194558 88 360 6.1 18.2 0.00 0.00 0.00 22 1014.2
20260906194041 88 360 1.7 10.4 0.00 0.00 0.00 22 1014.3
20260906193540 87 360 0.9 6.1 0.00 0.00 0.00 24 1014.3
20260906193041 86 360 3.5 6.1 0.00 0.00 0.00 24 1014.4
20260906192526 85 360 0.9 4.3 0.00 0.00 0.00 27 1014.5
20260906192027 85 360 1.7 4.3 0.00 0.00 0.00 29 1014.6
20260906191609 84 360 0.0 4.3 0.00 0.00 0.00 29 1014.7
20260906191106 83 360 0.0 3.5 0.00 0.00 0.00 30 1014.9
20260906190544 83 360 0.0 3.5 0.00 0.00 0.00 31 1014.9
20260906190029 83 360 0.0 1.7 0.00 0.00 0.00 30 1014.2
20260906185607 83 360 0.0 1.7 0.00 0.00 0.00 30 1014.3
20260906185031 83 360 0.0 1.7 0.00 0.00 0.00 31 1014.5
20260906184553 82 360 0.0 0.0 0.00 0.00 0.00 31 1014.7
20260906184034 83 360 0.0 0.9 0.00 0.00 0.00 31 1014.8
20260906183535 83 360 0.0 0.9 0.00 0.00 0.00 31 1015.0
20260906182535 82 360 0.0 0.0 0.00 0.00 0.00 32 1015.2
20260906182056 82 360 0.0 0.0 0.00 0.00 0.00 31 1015.3
20260906181557 81 360 0.0 0.0 0.00 0.00 0.00 32 1015.5
20260906181119 80 360 0.0 0.0 0.00 0.00 0.00 33 1015.6
20260906180537 79 360 0.0 0.0 0.00 0.00 0.00 33 1015.8
20260906180039 78 360 0.0 0.0 0.00 0.00 0.00 34 1016.0
20260906175601 78 360 0.0 0.0 0.00 0.00 0.00 34 1016.1
20260906175102 78 360 0.0 0.0 0.00 0.00 0.00 35 1016.2
20260906174542 78 360 0.0 0.0 0.00 0.00 0.00 35 1016.4
20260906174103 78 360 0.0 3.5 0.00 0.00 0.00 35 1016.5
20260906173523 78 360 0.0 3.5 0.00 0.00 0.00 35 1016.7
20260906173045 78 360 0.0 0.0 0.00 0.00 0.00 35 1016.8
20260906172525 77 360 0.0 0.0 0.00 0.00 0.00 36 1016.8
20260906172046 76 360 0.0 0.0 0.00 0.00 0.00 36 1016.9
20260906171607 76 360 0.0 0.0 0.00 0.00 0.00 37 1017.0
20260906171027 75 360 0.0 0.0 0.00 0.00 0.00 38 1017.1
20260906170529 75 360 0.0 0.0 0.00 0.00 0.00 38 1017.2
20260906170051 75 360 0.0 0.0 0.00 0.00 0.00 38 1017.2
20260906165531 75 360 0.0 0.0 0.00 0.00 0.00 38 1017.4
20260906164532 74 360 0.0 0.0 0.00 0.00 0.00 39 1017.5
20260906164033 74 360 0.0 0.0 0.00 0.00 0.00 39 1017.6
20260906163555 74 360 0.0 0.0 0.00 0.00 0.00 39 1017.7
20260906163116 74 360 0.0 0.0 0.00 0.00 0.00 39 1017.7
20260906162556 74 360 0.0 0.0 0.00 0.00 0.00 40 1017.8
20260906162117 73 360 0.0 0.0 0.00 0.00 0.00 40 1017.9
20260906161617 73 360 0.0 0.0 0.00 0.00 0.00 40 1017.9
20260906161037 73 360 0.0 0.0 0.00 0.00 0.00 40 1018.0
20260906160618 73 360 0.0 0.0 0.00 0.00 0.00 40 1018.1
20260906160057 72 360 0.0 0.0 0.00 0.00 0.00 41 1018.1
20260906155558 71 360 0.0 0.0 0.00 0.00 0.00 40 1018.2
20260906155058 71 360 0.0 0.0 0.00 0.00 0.00 40 1018.2
20260906154559 70 360 0.0 0.9 0.00 0.00 0.00 41 1018.1
20260906154040 69 360 0.0 0.9 0.00 0.00 0.00 42 1018.1
20260906153622 69 360 0.0 0.0 0.00 0.00 0.00 42 1018.2
20260906153102 69 360 0.0 0.0 0.00 0.00 0.00 42 1018.3
20260906152522 68 360 0.0 0.0 0.00 0.00 0.00 43 1018.2
20260906152024 67 360 0.0 0.0 0.00 0.00 0.00 43 1018.3
20260906151525 68 360 0.0 0.0 0.00 0.00 0.00 43 1018.3
20260906151027 69 360 0.0 0.0 0.00 0.00 0.00 42 1018.4
20260906150609 68 360 0.0 0.0 0.00 0.00 0.00 43 1018.6
20260906150049 66 360 0.0 0.0 0.00 0.00 0.00 44 1018.6
20260906145528 65 360 0.0 0.0 0.00 0.00 0.00 45 1018.6
20260906144530 64 360 0.0 0.0 0.00 0.00 0.00 47 1018.8
20260906144032 62 360 0.0 0.0 0.00 0.00 0.00 48 1018.8
20260906143613 62 360 0.0 0.0 0.00 0.00 0.00 48 1018.9
20260906143052 62 360 0.0 0.0 0.00 0.00 0.00 48 1018.8
20260906142552 62 360 0.0 0.0 0.00 0.00 0.00 49 1018.9
20260906142033 61 360 0.0 0.0 0.00 0.00 0.00 50 1018.8
20260906141534 60 360 0.0 0.0 0.00 0.00 0.00 51 1018.9
20260906141036 59 360 0.0 0.0 0.00 0.00 0.00 51 1018.9
20260906140540 59 360 0.0 0.0 0.00 0.00 0.00 52 1019.0
20260906140022 58 360 0.0 0.0 0.00 0.00 0.00 52 1019.0
20260906135523 58 360 0.0 0.0 0.00 0.00 0.00 52 1019.0
20260906135045 58 360 0.0 0.0 0.00 0.00 0.00 52 1019.0
20260906134525 57 360 0.0 0.0 0.00 0.00 0.00 54 1019.0
20260906134027 55 360 0.0 0.0 0.00 0.00 0.00 56 1018.9
20260906133528 54 360 0.0 0.0 0.00 0.00 0.00 57 1018.9
20260906133110 53 360 0.0 0.0 0.00 0.00 0.00 58 1018.9
20260906132550 52 360 0.0 2.6 0.00 0.00 0.00 59 1018.8
20260906132030 51 360 1.7 2.6 0.00 0.00 0.00 61 1018.8
20260906131532 50 360 1.7 2.6 0.00 0.00 0.00 61 1018.8
20260906131054 49 360 0.0 3.5 0.00 0.00 0.00 61 1018.7
20260906130554 49 360 0.9 4.3 0.00 0.00 0.00 61 1018.7
20260906130034 49 360 3.5 4.3 0.00 0.00 0.00 60 1018.7
20260906125535 49 360 0.0 3.5 0.00 0.00 0.00 60 1018.7
20260906125036 49 360 0.9 3.5 0.00 0.00 0.00 60 1018.6
20260906124558 50 360 1.7 3.5 0.00 0.00 0.00 59 1018.7
20260906124038 50 360 0.0 0.9 0.00 0.00 0.00 60 1018.6
20260906123523 50 360 0.0 0.9 0.00 0.00 0.00 59 1018.6
20260906123045 50 360 0.0 0.0 0.00 0.00 0.00 60 1018.7
20260906122623 50 360 0.0 3.5 0.00 0.00 0.00 60 1018.8
20260906122026 50 360 0.0 3.5 0.00 0.00 0.00 59 1018.6
20260906121548 50 360 0.0 0.9 0.00 0.00 0.00 59 1018.7
20260906121028 50 360 0.0 3.5 0.00 0.00 0.00 59 1018.7
20260906120549 50 360 2.6 3.5 0.00 0.00 0.00 59 1018.7
20260906120050 50 360 1.7 3.5 0.00 0.00 0.00 59 1018.7
20260906115048 51 360 0.9 5.2 0.00 0.00 0.00 58 1018.7
20260906114533 51 360 3.5 4.3 0.00 0.00 0.00 57 1018.9
20260906114055 52 360 0.0 1.7 0.00 0.00 0.00 57 1018.8
20260906113554 52 360 0.0 0.0 0.00 0.00 0.00 56 1018.7
20260906113035 53 360 0.0 0.0 0.00 0.00 0.00 56 1018.7
20260906112536 53 360 0.0 0.0 0.00 0.00 0.00 55 1018.8
20260906112038 53 360 0.0 0.0 0.00 0.00 0.00 55 1018.6
20260906111539 53 360 0.0 0.0 0.00 0.00 0.00 55 1018.6
20260906111041 53 360 0.0 0.9 0.00 0.00 0.00 55 1018.6
20260906110541 53 360 0.0 4.3 0.00 0.00 0.00 55 1018.6
20260906110022 53 360 0.0 4.3 0.00 0.00 0.00 56 1018.6
20260906105524 52 360 2.6 3.5 0.00 0.00 0.00 56 1018.6
20260906105025 52 360 0.0 3.5 0.00 0.00 0.00 56 1018.4
20260906104546 53 360 1.7 3.5 0.00 0.00 0.00 56 1018.3
20260906103525 54 360 2.6 3.5 0.00 0.00 0.00 55 1018.1
20260906103048 54 360 0.0 0.0 0.00 0.00 0.00 55 1018.1
20260906102528 54 360 0.0 0.0 0.00 0.00 0.00 55 1018.1
20260906102049 54 360 0.0 0.0 0.00 0.00 0.00 55 1018.0
20260906101530 53 360 0.0 0.0 0.00 0.00 0.00 56 1018.0
20260906101114 53 360 0.0 0.0 0.00 0.00 0.00 56 1018.0
20260906100532 53 360 0.0 3.5 0.00 0.00 0.00 57 1017.9
20260906100054 52 360 0.9 3.5 0.00 0.00 0.00 56 1017.9
20260906095535 53 360 0.0 4.3 0.00 0.00 0.00 56 1018.0
20260906095056 53 360 2.6 4.3 0.00 0.00 0.00 56 1017.9
20260906094617 52 360 2.6 3.5 0.00 0.00 0.00 57 1018.0
20260906094038 52 360 0.9 4.3 0.00 0.00 0.00 56 1018.0
20260906093558 52 360 2.6 4.3 0.00 0.00 0.00 55 1018.0
20260906093022 53 360 3.5 3.5 0.00 0.00 0.00 54 1017.9
20260906092525 54 360 0.0 0.0 0.00 0.00 0.00 53 1017.9
20260906092046 54 360 0.0 0.0 0.00 0.00 0.00 53 1017.8
20260906091547 54 360 0.0 3.5 0.00 0.00 0.00 54 1017.8
20260906091028 53 360 1.7 3.5 0.00 0.00 0.00 54 1017.8
20260906090529 53 360 1.7 3.5 0.00 0.00 0.00 54 1017.7
20260906090111 54 360 2.6 3.5 0.00 0.00 0.00 53 1017.8
20260906085551 54 360 2.6 3.5 0.00 0.00 0.00 52 1017.7
20260906084552 55 360 0.0 0.0 0.00 0.00 0.00 51 1017.7
20260906084054 56 360 0.0 0.0 0.00 0.00 0.00 51 1017.8
20260906083552 57 360 0.0 0.0 0.00 0.00 0.00 49 1017.8
20260906083050 58 360 0.0 0.0 0.00 0.00 0.00 49 1017.6
20260906082531 58 360 0.0 0.0 0.00 0.00 0.00 49 1017.6
20260906082114 58 360 0.0 0.0 0.00 0.00 0.00 48 1017.5
20260906081049 59 360 0.0 0.0 0.00 0.00 0.00 48 1017.5
20260906080548 59 360 0.0 0.0 0.00 0.00 0.00 48 1017.5
20260906080048 59 360 0.0 0.0 0.00 0.00 0.00 48 1017.5
20260906075532 59 360 0.0 0.0 0.00 0.00 0.00 48 1017.5
20260906075111 59 360 0.0 0.0 0.00 0.00 0.00 48 1017.4
20260906074534 59 360 0.0 2.6 0.00 0.00 0.00 49 1017.3
20260906074036 58 360 0.0 4.3 0.00 0.00 0.00 49 1017.3
20260906073557 58 360 2.6 5.2 0.00 0.00 0.00 49 1017.3
20260906073057 58 360 4.3 5.2 0.00 0.00 0.00 50 1017.2
20260906072539 58 360 0.9 5.2 0.00 0.00 0.00 49 1017.3
20260906072040 58 360 2.6 5.2 0.00 0.00 0.00 49 1017.3
20260906071601 58 360 2.6 3.5 0.00 0.00 0.00 49 1017.2
20260906070602 58 360 1.7 5.2 0.00 0.00 0.00 48 1017.2
20260906070042 59 360 3.5 4.3 0.00 0.00 0.00 47 1017.2
20260906065604 59 360 0.0 1.7 0.00 0.00 0.00 47 1017.1
20260906065105 59 360 0.0 2.6 0.00 0.00 0.00 47 1017.0
20260906064605 59 360 0.9 3.5 0.00 0.00 0.00 47 1017.9
20260906064027 60 360 1.7 3.5 0.00 0.00 0.00 46 1017.8
20260906063548 60 360 0.0 2.6 0.00 0.00 0.00 46 1017.6
20260906063028 61 360 0.0 3.5 0.00 0.00 0.00 45 1017.7
20260906062609 61 360 1.7 3.5 0.00 0.00 0.00 44 1017.6
20260906062050 62 360 0.0 3.5 0.00 0.00 0.00 44 1017.7
20260906061551 62 360 3.5 3.5 0.00 0.00 0.00 44 1017.5
20260906061034 62 360 0.0 3.5 0.00 0.00 0.00 44 1017.4
20260906060534 62 360 0.0 6.1 0.00 0.00 0.00 44 1017.4
20260906060035 62 360 4.3 6.1 0.00 0.00 0.00 44 1017.3
20260906055536 62 360 5.2 6.1 0.00 0.00 0.00 43 1017.3
20260906055057 63 360 4.3 5.2 0.00 0.00 0.00 43 1017.3
20260906054537 63 360 1.7 5.2 0.00 0.00 0.00 43 1017.4
20260906054100 63 360 4.3 5.2 0.00 0.00 0.00 42 1017.4
20260906053540 64 360 3.5 5.2 0.00 0.00 0.00 42 1017.4
20260906053122 64 360 2.6 5.2 0.00 0.00 0.00 42 1017.4
20260906052101 65 360 0.0 3.5 0.00 0.00 0.00 41 1017.4
20260906051040 66 360 0.0 3.5 0.00 0.00 0.00 41 1017.6
20260906050541 67 360 1.7 2.6 0.00 0.00 0.00 39 1017.5
20260906045541 68 360 0.0 2.6 0.00 0.00 0.00 39 1017.4
20260906045103 68 360 0.0 2.6 0.00 0.00 0.00 38 1017.4
20260906044544 69 360 0.0 1.7 0.00 0.00 0.00 38 1017.4
20260906044106 69 360 0.0 1.7 0.00 0.00 0.00 38 1017.3
20260906043525 70 360 0.0 0.0 0.00 0.00 0.00 38 1017.2
20260906043107 70 360 0.0 1.7 0.00 0.00 0.00 38 1017.3
20260906042627 70 360 0.0 1.7 0.00 0.00 0.00 37 1017.2
20260906042027 71 360 0.0 0.0 0.00 0.00 0.00 36 1017.2
20260906041528 71 360 0.0 0.0 0.00 0.00 0.00 36 1017.1
20260906041111 72 360 0.0 0.0 0.00 0.00 0.00 35 1017.1
20260906040609 72 360 0.0 0.0 0.00 0.00 0.00 35 1017.0
20260906040048 72 360 0.0 0.0 0.00 0.00 0.00 34 1016.9
20260906035048 73 360 0.0 1.7 0.00 0.00 0.00 33 1016.7
20260906034528 73 360 0.0 2.6 0.00 0.00 0.00 33 1016.7
20260906034030 73 360 0.0 4.3 0.00 0.00 0.00 32 1016.6
20260906033530 74 360 0.0 6.1 0.00 0.00 0.00 30 1016.6
20260906033051 75 360 3.5 6.1 0.00 0.00 0.00 29 1016.3
20260906032530 77 360 2.6 3.5 0.00 0.00 0.00 28 1016.2
20260906032051 78 360 0.9 5.2 0.00 0.00 0.00 27 1016.1
20260906031531 78 360 2.6 9.6 0.00 0.00 0.00 28 1016.0
20260906031033 78 360 5.2 9.6 0.00 0.00 0.00 27 1016.0
20260906030554 77 360 7.0 9.6 0.00 0.00 0.00 27 1015.9
20260906030035 75 360 4.3 10.4 0.00 0.00 0.00 28 1015.7
20260906025034 74 360 0.0 0.0 0.00 0.00 0.00 28 1015.2
20260906024035 75 360 0.0 0.0 0.00 0.00 0.00 28 1014.9
20260906023556 77 360 0.0 0.0 0.00 0.00 0.00 27 1014.8
20260906023118 77 360 0.0 0.0 0.00 0.00 0.00 27 1014.7
20260906022618 77 360 0.0 0.0 0.00 0.00 0.00 26 1014.6
20260906022057 77 360 0.0 0.0 0.00 0.00 0.00 26 1014.5
20260906021538 78 360 0.0 0.0 0.00 0.00 0.00 26 1014.5
20260906021040 78 360 0.0 2.6 0.00 0.00 0.00 25 1014.5
20260906020541 78 360 0.0 3.5 0.00 0.00 0.00 25 1014.4
20260906020103 79 360 2.6 3.5 0.00 0.00 0.00 25 1014.3
20260906015526 81 360 2.6 4.3 0.00 0.00 0.00 24 1014.2
20260906015028 83 360 2.6 6.1 0.00 0.00 0.00 22 1014.3
20260906014531 85 360 2.6 8.7 0.00 0.00 0.00 21 1014.2
20260906014113 86 360 4.3 8.7 0.00 0.00 0.00 21 1014.1
20260906013552 87 360 5.2 7.8 0.00 0.00 0.00 21 1014.1
20260906013032 87 360 3.5 10.4 0.00 0.00 0.00 21 1014.1
20260906012532 88 360 0.9 10.4 0.00 0.00 0.00 21 1014.1
20260906012034 88 360 0.9 8.7 0.00 0.00 0.00 20 1014.1
20260906011617 88 360 1.7 8.7 0.00 0.00 0.00 21 1014.1
20260906011036 88 360 0.9 8.7 0.00 0.00 0.00 21 1014.1
20260906010557 88 360 1.7 7.8 0.00 0.00 0.00 21 1014.1
20260906010037 89 360 0.9 7.8 0.00 0.00 0.00 21 1014.1
20260906005619 89 360 0.0 3.5 0.00 0.00 0.00 21 1014.1
20260906005038 89 360 0.0 8.7 0.00 0.00 0.00 21 1014.1
20260906004540 89 360 0.0 8.7 0.00 0.00 0.00 21 1013.9
20260906004042 90 360 0.0 0.0 0.00 0.00 0.00 23 1013.9
20260906003541 90 360 0.0 0.0 0.00 0.00 0.00 23 1014.0
20260906003044 90 360 0.0 6.1 0.00 0.00 0.00 23 1014.0
20260906002526 90 360 3.5 6.1 0.00 0.00 0.00 23 1014.0
20260906002027 90 360 0.0 5.2 0.00 0.00 0.00 23 1014.0
20260906001533 89 360 0.9 7.8 0.00 0.00 0.00 22 1014.0
20260906001034 89 360 4.3 10.4 0.00 0.00 0.00 23 1014.0
20260905235548 90 360 1.7 11.3 0.00 0.00 0.00 23 1014.0
20260905235049 90 360 0.0 8.7 0.00 0.00 0.00 22 1013.9
20260905234550 90 360 3.5 11.3 0.00 0.00 0.00 22 1014.1
20260905234051 90 360 1.7 11.3 0.00 0.00 0.00 23 1014.1
20260905233530 90 360 0.0 11.3 0.00 0.00 0.00 23 1014.1
20260905233032 90 360 2.6 11.3 0.00 0.00 0.00 23 1014.0
20260905232615 91 360 0.9 13.0 0.00 0.00 0.00 22 1014.0
20260905232034 91 360 4.3 13.0 0.00 0.00 0.00 23 1014.1
20260905231556 91 360 2.6 12.2 0.00 0.00 0.00 22 1014.1
20260905231057 91 360 3.5 12.2 0.00 0.00 0.00 22 1014.1